Location: Devils Tower National Monument
(44.5904°N, 104.7201°W)
Time: 16:45:21
(UTC-07:00)

Envisat - Pass Details

Date: 29 January 2020
Orbit: 764 x 766 km, 98.1° (Epoch: 24 February)

Event Time Altitude Azimuth Distance (km) Brightness Sun altitude
Rises 05:05:17 0° 36° (NE) 3,238 6.7 -24.3°
Reaches altitude 10° 05:10:08 10° 77° (ENE) 2,302 6.5 -23.4°
Maximum altitude 05:10:54 10° 86° (E) 2,279 6.5 -23.3°
Drops below altitude 10° 05:11:40 10° 95° (E) 2,300 6.6 -23.1°
Sets 05:16:28 0° 136° (SE) 3,217 6.9 -22.3°
